Location: Jonesport
(44.5330°N, 67.5990°W)
Time: 18:07:25
(UTC-04:00)

Iridium 35 - Visible Passes

Search period start: 28 May 2016 00:00
Search period end: 07 June 2016 00:00
Orbit: 776 x 779 km, 86.4° (Epoch: 28 May)

Date Brightness Start Highest point End Pass type
(mag) Time Alt. Az. Time Alt. Az. Time Alt. Az.
28 May 5.3 03:32:56 10° N 03:38:10 72° E 03:43:22 10° S visible
29 May 6.3 02:59:37 10° N 03:04:32 40° E 03:09:25 10° SSE visible
30 May 7.2 02:26:38 10° NNE 02:30:46 23° ENE 02:34:53 10° SE visible
30 May 5.4 04:06:45 10° NNW 04:11:43 45° W 04:16:39 10° SSW visible
31 May 7.7 01:54:23 10° NE 01:56:52 13° ENE 01:59:20 10° E visible
31 May 5.0 03:33:02 10° N 03:38:17 81° W 03:43:29 10° S visible
01 Jun 5.6 02:59:34 10° N 03:04:43 57° E 03:09:51 10° SSE visible
02 Jun 6.6 02:26:22 10° NNE 02:31:03 32° ENE 02:35:41 10° SE visible
02 Jun 5.9 04:07:07 10° NNW 04:11:42 32° W 04:16:16 10° SW visible
03 Jun 7.4 01:53:34 10° NNE 01:57:14 19° ENE 02:00:51 10° ESE visible
03 Jun 5.2 03:33:13 10° N 03:38:21 57° W 03:43:27 10° SSW visible
04 Jun 7.8 01:22:22 10° ENE 01:23:15 10° ENE 01:24:09 10° ENE visible
04 Jun 5.1 02:59:37 10° N 03:04:52 81° E 03:10:05 10° S visible
05 Jun 6.0 02:26:14 10° N 02:31:16 45° E 02:36:15 10° SSE visible
05 Jun 6.3 04:07:38 10° NNW 04:11:40 23° W 04:15:40 10° SW visible
06 Jun 6.9 01:53:11 10° NNE 01:57:31 26° ENE 02:01:51 10° SE visible
06 Jun 5.6 03:33:31 10° NNW 03:38:22 40° W 03:43:03 11° SSW visible
